Weather in Nikolaevka

Ukraine / Mykolaiv District     47°47′38″N   31°28′24″E
temp.,
°C
wind,
m/s
gust,
m/s
humid.,
%
clouds,
%
prec.,
mm/h
press.,
hPa
HPBL,
m
14 august, sun
sun1400:00+24ne465289 0.0 100896
03:00+23ene4849100 0.0 1008152
06:00+21ene51152100 0.3 1008235
09:00+21ene51171100 4.4 1008328
12:00+27e5743100 1.4 1008929
15:00+30ese683580 2.1 10071598
18:00+29ene363494 0.6 1006559
21:00+26ne363895 0.6 1006107
15 august, mon
mon1500:00+23e23405 0.0 100523
03:00+23ne454345 0.0 100585
06:00+22ene47435 0.0 1004120
09:00+26e5833100 0.1 1005510
12:00+30e5532100 0.1 1005953
15:00+33e2429100 0.6 10041909
18:00+32s3429100 0.1 1004968
21:00+25s3460100 0.3 100483
16 august, tue
tue1600:00+23sw5880100 0.9 1006453
03:00+20w3587100 4.3 1006181
06:00+19sw129263 2.8 100661
09:00+21ssw367877 3.9 1007417
12:00+21ssw3575100 0.4 1008431
15:00+21sw2374100 0.4 1008208
18:00+21wsw0074100 0.2 100829
21:00+19ne2591100 5.6 1009148
17 august, wed
wed1700:00+19se249018 2.2 100991
03:00+18wsw1193100 2.2 100811
06:00+19wsw118997 0.0 100811
09:00+23ssw2366100 0.1 1009322
12:00+28ssw444899 0.0 10091092
15:00+30wsw464097 0.0 10081718
18:00+29w56426 0.0 10081635
21:00+25nw22565 0.0 100819
18 august, thu
thu1800:00+22sse11688 0.4 101011
03:00+22w22695 0.4 100811
06:00+21wsw01715 0.0 100911
09:00+24wnw225832 0.3 1010421
12:00+29w34455 0.0 10091472
15:00+30w5640100 0.1 10082238
18:00+30wsw25396 0.3 10081915
21:00+25nnw115452 0.3 100914